Torna al catalogo

ATLAS 5 CENTAUR DEB

AttivoHEO
NORAD 43982·DEBRIS·🇺🇸 United States

Lanciato Sep 17, 2014 da Cape Canaveral Space Force Station

Loading…

Prossimi Passaggi (prossime 24 ore)

TLE

AggiornatoSource: Space-Track

Epoca: Sep 8, 2026, 08:38 UTC

1 43982U 14055AM  26251.36022196 -.00000019  00000-0  00000-0 0  9997
2 43982  19.0259 184.8034 4717681  93.5289 319.4248  1.75459340 51276

Traccia ATLAS 5 CENTAUR DEB in tempo reale con AllMySat

Download on the App Store